When you browse on this site, cookies collect data to enhance your experience and personalize the content and advertising you see.
Visit our Privacy Policy to learn more. By continuing to use the site, you agree to this use of cookies and data.

Meteo orario Dhaka

Oggi, 14 Luglio, Martedi

Tempo Temperatura Precipitazioni Vento Pressione Umidità
00:00 +30°C° 0 mm 2 m/s 750 mm Hg 86%
01:00 +30°C° 1.7 mm 2 m/s 749 mm Hg 87%
02:00 +30°C° 1.7 mm 3 m/s 749 mm Hg 87%
03:00 +29°C° 1.7 mm 3 m/s 748 mm Hg 87%
04:00 +29°C° 0.2 mm 3 m/s 749 mm Hg 87%
05:00 +29°C° 0.2 mm 3 m/s 749 mm Hg 87%
06:00 +29°C° 0 mm 2 m/s 750 mm Hg 88%
07:00 +31°C° 0.2 mm 2 m/s 750 mm Hg 81%
08:00 +33°C° 0.2 mm 3 m/s 750 mm Hg 75%
09:00 +34°C° 0.2 mm 4 m/s 750 mm Hg 69%
10:00 +35°C° 0.1 mm 4 m/s 750 mm Hg 65%
11:00 +36°C° 0.1 mm 4 m/s 750 mm Hg 61%
12:00 +36°C° 0 mm 4 m/s 751 mm Hg 62%
13:00 +36°C° 2.1 mm 5 m/s 750 mm Hg 64%
14:00 +35°C° 2.1 mm 5 m/s 749 mm Hg 66%
15:00 +35°C° 2.1 mm 6 m/s 748 mm Hg 69%
16:00 +34°C° 1.1 mm 6 m/s 748 mm Hg 71%
17:00 +34°C° 1.1 mm 6 m/s 749 mm Hg 73%
18:00 +33°C° 0 mm 4 m/s 749 mm Hg 80%
19:00 +32°C° 0.1 mm 4 m/s 749 mm Hg 81%
20:00 +32°C° 0.1 mm 4 m/s 750 mm Hg 82%
21:00 +30°C° 0.1 mm 4 m/s 750 mm Hg 83%
22:00 +30°C° 0.1 mm 4 m/s 750 mm Hg 84%
23:00 +30°C° 0.1 mm 4 m/s 751 mm Hg 85%

Domani, 15 Luglio, Mercoledi

Tempo Temperatura Precipitazioni Vento Pressione Umidità
00:00 +30°C° 0.1 mm 4 m/s 751 mm Hg 86%
01:00 +29°C° 0 mm 4 m/s 751 mm Hg 86%
02:00 +29°C° 0 mm 4 m/s 750 mm Hg 86%
03:00 +29°C° 0 mm 4 m/s 750 mm Hg 86%
04:00 +29°C° 0.1 mm 4 m/s 750 mm Hg 86%
05:00 +29°C° 0.1 mm 4 m/s 751 mm Hg 87%
06:00 +29°C° 0.1 mm 4 m/s 751 mm Hg 87%
07:00 +30°C° 0.1 mm 4 m/s 751 mm Hg 82%
08:00 +32°C° 0.1 mm 5 m/s 752 mm Hg 78%
09:00 +33°C° 0.1 mm 5 m/s 752 mm Hg 74%
10:00 +34°C° 1 mm 6 m/s 752 mm Hg 72%
11:00 +34°C° 1 mm 6 m/s 751 mm Hg 69%
12:00 +35°C° 1 mm 6 m/s 751 mm Hg 67%
13:00 +35°C° 1 mm 6 m/s 750 mm Hg 66%
14:00 +35°C° 1 mm 6 m/s 749 mm Hg 66%
15:00 +36°C° 1 mm 6 m/s 749 mm Hg 65%
16:00 +35°C° 0.2 mm 6 m/s 749 mm Hg 68%
17:00 +34°C° 0.2 mm 5 m/s 749 mm Hg 70%
18:00 +33°C° 0.2 mm 5 m/s 749 mm Hg 73%
19:00 +33°C° 0 mm 5 m/s 749 mm Hg 75%
20:00 +32°C° 0 mm 4 m/s 750 mm Hg 77%
21:00 +32°C° 0 mm 4 m/s 750 mm Hg 78%
22:00 +30°C° 0.1 mm 4 m/s 751 mm Hg 80%
23:00 +30°C° 0.1 mm 4 m/s 751 mm Hg 82%

Dopodomani, 16 Luglio, Giovedi

Tempo Temperatura Precipitazioni Vento Pressione Umidità
00:00 +30°C° 0.1 mm 3 m/s 752 mm Hg 84%
01:00 +29°C° 0.4 mm 3 m/s 751 mm Hg 84%
02:00 +29°C° 0.4 mm 3 m/s 751 mm Hg 85%
03:00 +29°C° 0.4 mm 3 m/s 750 mm Hg 86%
04:00 +29°C° 0 mm 3 m/s 750 mm Hg 86%
05:00 +29°C° 0 mm 3 m/s 751 mm Hg 87%
06:00 +29°C° 0 mm 3 m/s 751 mm Hg 87%
07:00 +30°C° 0 mm 3 m/s 751 mm Hg 82%
08:00 +32°C° 0 mm 4 m/s 751 mm Hg 76%
09:00 +34°C° 0 mm 4 m/s 751 mm Hg 70%
10:00 +34°C° 0.2 mm 5 m/s 751 mm Hg 67%
11:00 +35°C° 0.2 mm 5 m/s 750 mm Hg 63%
12:00 +36°C° 0.2 mm 5 m/s 750 mm Hg 59%
13:00 +36°C° 0.5 mm 5 m/s 749 mm Hg 59%
14:00 +36°C° 0.5 mm 5 m/s 749 mm Hg 59%
15:00 +38°C° 0.5 mm 6 m/s 748 mm Hg 59%
16:00 +36°C° 0.2 mm 5 m/s 748 mm Hg 62%
17:00 +35°C° 0.2 mm 5 m/s 748 mm Hg 64%
18:00 +34°C° 0.2 mm 5 m/s 748 mm Hg 67%
19:00 +34°C° 0 mm 5 m/s 748 mm Hg 70%
20:00 +33°C° 0 mm 5 m/s 749 mm Hg 73%
21:00 +32°C° 0 mm 5 m/s 750 mm Hg 76%
22:00 +30°C° 0 mm 4 m/s 750 mm Hg 78%
23:00 +30°C° 0 mm 4 m/s 750 mm Hg 80%

17 Luglio, Venerdi

Tempo Temperatura Precipitazioni Vento Pressione Umidità
00:00 +30°C° 0 mm 4 m/s 750 mm Hg 82%
01:00 +30°C° 0.1 mm 3 m/s 750 mm Hg 83%
02:00 +29°C° 0.1 mm 3 m/s 750 mm Hg 85%
03:00 +29°C° 0.1 mm 2 m/s 750 mm Hg 86%
04:00 +29°C° 0.1 mm 2 m/s 750 mm Hg 86%
05:00 +29°C° 0.1 mm 3 m/s 750 mm Hg 86%
06:00 +29°C° 0.1 mm 3 m/s 750 mm Hg 86%
07:00 +31°C° 0 mm 3 m/s 750 mm Hg 80%
08:00 +33°C° 0 mm 4 m/s 751 mm Hg 73%
09:00 +34°C° 0 mm 4 m/s 751 mm Hg 67%
10:00 +35°C° 0 mm 4 m/s 751 mm Hg 63%
11:00 +36°C° 0 mm 4 m/s 750 mm Hg 60%
12:00 +37°C° 0 mm 5 m/s 750 mm Hg 57%
13:00 +37°C° 0 mm 5 m/s 749 mm Hg 57%
14:00 +37°C° 0 mm 5 m/s 749 mm Hg 57%
15:00 +37°C° 0 mm 5 m/s 748 mm Hg 56%
16:00 +36°C° 0.1 mm 5 m/s 748 mm Hg 60%
17:00 +35°C° 0.1 mm 5 m/s 748 mm Hg 63%
18:00 +35°C° 0.1 mm 5 m/s 748 mm Hg 66%
19:00 +34°C° 0 mm 5 m/s 749 mm Hg 69%
20:00 +33°C° 0 mm 5 m/s 750 mm Hg 72%
21:00 +32°C° 0 mm 5 m/s 750 mm Hg 75%
22:00 +32°C° 0 mm 5 m/s 750 mm Hg 77%
23:00 +30°C° 0 mm 4 m/s 751 mm Hg 79%

18 Luglio, Sabato

Tempo Temperatura Precipitazioni Vento Pressione Umidità
00:00 +30°C° 0 mm 4 m/s 751 mm Hg 81%
01:00 +30°C° 0 mm 4 m/s 750 mm Hg 82%
02:00 +30°C° 0 mm 3 m/s 750 mm Hg 83%
03:00 +29°C° 0 mm 3 m/s 750 mm Hg 84%
04:00 +29°C° 0 mm 3 m/s 750 mm Hg 85%
05:00 +29°C° 0 mm 3 m/s 750 mm Hg 86%
06:00 +29°C° 0 mm 3 m/s 750 mm Hg 86%
07:00 +30°C° 0 mm 4 m/s 751 mm Hg 81%
08:00 +33°C° 0 mm 5 m/s 751 mm Hg 76%
09:00 +34°C° 0 mm 5 m/s 751 mm Hg 71%
10:00 +35°C° 0.2 mm 6 m/s 751 mm Hg 67%
11:00 +36°C° 0.2 mm 6 m/s 751 mm Hg 64%
12:00 +36°C° 0.2 mm 6 m/s 751 mm Hg 60%
13:00 +38°C° 0.4 mm 6 m/s 750 mm Hg 60%
14:00 +38°C° 0.4 mm 6 m/s 750 mm Hg 60%
15:00 +38°C° 0.4 mm 6 m/s 749 mm Hg 60%
16:00 +36°C° 0.9 mm 6 m/s 749 mm Hg 64%
17:00 +35°C° 0.9 mm 6 m/s 749 mm Hg 68%
18:00 +34°C° 0.9 mm 5 m/s 749 mm Hg 72%
19:00 +33°C° 0.1 mm 5 m/s 750 mm Hg 75%
20:00 +32°C° 0.1 mm 5 m/s 751 mm Hg 77%
21:00 +32°C° 0.1 mm 5 m/s 751 mm Hg 79%
22:00 +32°C° 0 mm 5 m/s 751 mm Hg 81%
23:00 +30°C° 0 mm 5 m/s 751 mm Hg 82%

19 Luglio, Domenica

Tempo Temperatura Precipitazioni Vento Pressione Umidità
00:00 +30°C° 0 mm 5 m/s 751 mm Hg 84%
01:00 +30°C° 0.1 mm 5 m/s 751 mm Hg 84%
02:00 +30°C° 0.1 mm 5 m/s 750 mm Hg 84%
03:00 +29°C° 0.1 mm 4 m/s 750 mm Hg 84%
04:00 +29°C° 0.2 mm 4 m/s 750 mm Hg 84%
05:00 +29°C° 0.2 mm 5 m/s 750 mm Hg 84%
06:00 +29°C° 0.2 mm 5 m/s 750 mm Hg 84%
07:00 +32°C° 1 mm 5 m/s 750 mm Hg 79%
08:00 +33°C° 1 mm 5 m/s 750 mm Hg 74%
09:00 +34°C° 1 mm 6 m/s 751 mm Hg 69%
10:00 +35°C° 1.5 mm 6 m/s 750 mm Hg 67%
11:00 +35°C° 1.5 mm 6 m/s 750 mm Hg 66%
12:00 +36°C° 1.5 mm 7 m/s 749 mm Hg 64%
13:00 +35°C° 1.8 mm 6 m/s 749 mm Hg 68%
14:00 +34°C° 1.8 mm 6 m/s 749 mm Hg 71%
15:00 +33°C° 1.8 mm 6 m/s 748 mm Hg 74%
16:00 +33°C° 2.5 mm 6 m/s 748 mm Hg 77%
17:00 +32°C° 2.5 mm 6 m/s 748 mm Hg 80%
18:00 +30°C° 2.5 mm 5 m/s 748 mm Hg 83%
19:00 +30°C° 3.2 mm 6 m/s 748 mm Hg 84%
20:00 +30°C° 3.2 mm 6 m/s 749 mm Hg 85%
21:00 +30°C° 3.2 mm 6 m/s 749 mm Hg 86%
22:00 +30°C° 2.8 mm 6 m/s 749 mm Hg 87%
23:00 +29°C° 2.8 mm 6 m/s 749 mm Hg 88%
Mostrare altro